Find Kuiper-00153

NORAD ID: 65773 Int'l Des: 2025-217 Owner: KUIP Country: US Constellation: amazon-leo operational
LEOCIRCULAR

現在のビュー

3D地球を読み込み中...

About Kuiper-00153

Kuiper-00153 (NORAD 65773) is a amazon-leo constellation satellite launched Sep 25, 2025 by KUIP of US. It operates in LEO, CIRCULAR orbit with a mass of 490.00 kg.

次回通過

Passes for default location (London). Set your location on the main map for personalized predictions.

高度履歴

Loading altitude history...

軌道要素

1 65773U 25217M 26237.59426502 .00002996 00000-0 42191-3 0 9994
2 65773 51.9035 358.7891 0000696 109.5289 250.5748 14.79924709 50131
Epoch: Aug 25, 2026 • Age: 18 hours

現在のステータス

高度 630.6 km
遠地点 / 近地点 N/A
速度 7.54 km/s
衛星直下点 -0.76°S, 100.97°W
打ち上げ日 Sep 25, 2025
運用期間 0.9 years
タイプ internet

技術仕様

分類 Payload
質量 490.00 kg
乾燥質量 490.00 kg
総質量 490.00 kg
長さ 1.80 m
直径 0.70 m
スパン 5.00 m
形状 Box + 2 pan
製造者 KUIP
バスタイプ Kuiper
フェーズステータス In Orbit
所有者/国 KUIP/US

Most Searched